Weather History for KRRT - October, 2013

Change the Weather History Date:

Tuesday, October 1, 2013

  Actual Average Record
Temperature  
Mean Temperature 57 °F -  
Max Temperature 64 °F 61 °F 85 °F (1989)
Min Temperature 50 °F 40 °F 23 °F (1974)
Degree Days  
Heating Degree Days 8    
Growing Degree Days 7 (Base 50)    
Moisture  
Dew Point 45 °F    
Average Humidity 66    
Maximum Humidity 88    
Minimum Humidity 40    
Precipitation  
Precipitation 0.06 in - - ()
Sea Level Pressure  
Sea Level Pressure 29.63 in    
Wind  
Wind Speed 12 mph (WSW)    
Max Wind Speed 31 mph    
Max Gust Speed 44 mph    
Visibility 10 miles    
Events Rain    
Averages and records for this station are not official NWS values.
T = Trace of Precipitation, MM = Missing Value Source: NWS Daily Summary

Daily Weather History Graph

Daily Weather History Graph

Search for Another Location

Airport or City:

Trip Planner

Search our weather history database for the weather conditions in past years. The results will help you decide how hot, cold, wet, or windy it might be!

Date:

Astronomy

Oct. 01, 2013 Rise Set
Actual Time 7:21 AM CDT 6:59 PM CDT
Civil Twilight 6:49 AM CDT 7:31 PM CDT
Nautical Twilight 6:13 AM CDT 8:07 PM CDT
Astronomical Twilight 5:35 AM CDT 8:45 PM CDT
Moon 3:41 AM CDT (10/1) 5:15 PM CDT (10/1)
Length of Visible Light 12h 41m
Length of Day
11h 38m
Waning Crescent, 12% of the Moon is Illuminated
Oct 1
Waning Crescent
Oct 4
New
Oct 11
First Quarter
Oct 18
Full
Oct 26
Last Quarter

Hourly Weather History & Observations

Time (CDT) Temp. Dew Point Humidity Pressure Visibility Wind Dir Wind Speed Gust Speed Precip Events Conditions
12:14 AM 55.4 °F 50.0 °F 82% 29.45 in 10.0 mi SSE 8.1 mph - N/A   Scattered Clouds
12:34 AM 57.2 °F 51.8 °F 82% 29.45 in 10.0 mi South 4.6 mph - N/A   Mostly Cloudy
12:54 AM 57.2 °F 51.8 °F 82% 29.44 in 10.0 mi South 8.1 mph - N/A   Mostly Cloudy
1:14 AM 59.0 °F 53.6 °F 82% 29.44 in 10.0 mi South 6.9 mph - N/A   Scattered Clouds
1:33 AM 59.0 °F 53.6 °F 82% 29.46 in 10.0 mi SSW 9.2 mph - N/A Rain Light Rain
1:54 AM 60.8 °F 53.6 °F 77% 29.47 in 10.0 mi SW 10.4 mph 16.1 mph N/A   Mostly Cloudy
2:14 AM 60.8 °F 53.6 °F 77% 29.48 in 10.0 mi West 10.4 mph 20.7 mph N/A Rain Rain
2:33 AM 57.2 °F 53.6 °F 88% 29.49 in 10.0 mi West 10.4 mph - 0.02 in Rain Light Rain
2:54 AM 55.4 °F 51.8 °F 88% 29.49 in 10.0 mi West 10.4 mph - 0.05 in Rain Rain
3:13 AM 55.4 °F 51.8 °F 88% 29.48 in 10.0 mi West 5.8 mph - 0.01 in Rain Light Rain
3:34 AM 55.4 °F 51.8 °F 88% 29.49 in 10.0 mi WSW 8.1 mph - 0.01 in   Clear
3:54 AM 53.6 °F 50.0 °F 88% 29.49 in 10.0 mi WSW 8.1 mph - 0.01 in   Clear
4:13 AM 53.6 °F 48.2 °F 82% 29.50 in 10.0 mi WSW 9.2 mph - N/A   Clear
4:34 AM 53.6 °F 48.2 °F 82% 29.51 in 10.0 mi WSW 8.1 mph - N/A   Clear
4:54 AM 53.6 °F 48.2 °F 82% 29.51 in 10.0 mi WSW 9.2 mph - N/A   Mostly Cloudy
5:13 AM 51.8 °F 48.2 °F 88% 29.52 in 10.0 mi WSW 8.1 mph - N/A   Scattered Clouds
5:34 AM 51.8 °F 48.2 °F 88% 29.52 in 10.0 mi SW 8.1 mph - N/A   Clear
5:54 AM 51.8 °F 46.4 °F 82% 29.52 in 10.0 mi WSW 11.5 mph - N/A   Clear
6:13 AM 51.8 °F 46.4 °F 82% 29.53 in 10.0 mi SW 12.7 mph 17.3 mph N/A   Clear
6:34 AM 51.8 °F 46.4 °F 82% 29.53 in 10.0 mi SW 11.5 mph - N/A   Clear
6:54 AM 51.8 °F 46.4 °F 82% 29.54 in 10.0 mi SW 9.2 mph 16.1 mph N/A   Clear
7:13 AM 50.0 °F 46.4 °F 87% 29.55 in 10.0 mi SW 10.4 mph 18.4 mph N/A   Clear
7:34 AM 50.0 °F 46.4 °F 87% 29.56 in 10.0 mi SW 10.4 mph 18.4 mph N/A   Clear
7:54 AM 50.0 °F 46.4 °F 87% 29.56 in 10.0 mi SW 9.2 mph 16.1 mph N/A   Clear
8:13 AM 50.0 °F 44.6 °F 82% 29.57 in 10.0 mi SW 10.4 mph 18.4 mph N/A   Clear
8:34 AM 50.0 °F 44.6 °F 82% 29.58 in 10.0 mi SW 11.5 mph 16.1 mph N/A   Clear
8:54 AM 51.8 °F 44.6 °F 76% 29.58 in 10.0 mi SW 11.5 mph 18.4 mph N/A   Clear
9:13 AM 51.8 °F 44.6 °F 76% 29.59 in 10.0 mi WSW 15.0 mph 21.9 mph N/A   Clear
9:34 AM 53.6 °F 44.6 °F 72% 29.60 in 10.0 mi WSW 12.7 mph 20.7 mph N/A   Clear
9:54 AM 53.6 °F 42.8 °F 67% 29.60 in 10.0 mi WSW 13.8 mph 25.3 mph N/A   Clear
10:14 AM 55.4 °F 44.6 °F 67% 29.61 in 10.0 mi WSW 15.0 mph 23.0 mph N/A   Clear
10:34 AM 55.4 °F 44.6 °F 67% 29.62 in 10.0 mi SW 13.8 mph 21.9 mph N/A   Clear
10:54 AM 57.2 °F 42.8 °F 59% 29.62 in 10.0 mi WSW 23.0 mph 26.5 mph N/A   Clear
11:14 AM 57.2 °F 42.8 °F 59% 29.62 in 10.0 mi WSW 19.6 mph 28.8 mph N/A   Clear
11:34 AM 57.2 °F 44.6 °F 63% 29.63 in 10.0 mi WSW 20.7 mph 28.8 mph N/A   Clear
11:54 AM 59.0 °F 42.8 °F 55% 29.63 in 10.0 mi WSW 23.0 mph 34.5 mph N/A   Clear
12:14 PM 60.8 °F 42.8 °F 52% 29.63 in 10.0 mi WSW 20.7 mph 38.0 mph N/A   Clear
12:34 PM 60.8 °F 44.6 °F 55% 29.63 in 10.0 mi WSW 18.4 mph 26.5 mph N/A   Clear
12:54 PM 62.6 °F 44.6 °F 52% 29.63 in 10.0 mi WSW 18.4 mph 31.1 mph N/A   Clear
1:13 PM 62.6 °F 44.6 °F 52% 29.63 in 10.0 mi West 20.7 mph 34.5 mph N/A   Scattered Clouds
1:34 PM 62.6 °F 42.8 °F 48% 29.63 in 10.0 mi WSW 28.8 mph 36.8 mph N/A   Scattered Clouds
1:54 PM 62.6 °F 42.8 °F 48% 29.63 in 10.0 mi West 31.1 mph 38.0 mph N/A   Clear
2:14 PM 64.4 °F 42.8 °F 45% 29.63 in 10.0 mi WSW 29.9 mph 38.0 mph N/A   Scattered Clouds
2:33 PM 64.4 °F 42.8 °F 45% 29.64 in 10.0 mi WSW 19.6 mph 43.7 mph N/A   Scattered Clouds
2:54 PM 64.4 °F 41.0 °F 42% 29.64 in 10.0 mi West 31.1 mph 42.6 mph N/A   Scattered Clouds
3:14 PM 64.4 °F 42.8 °F 45% 29.66 in 10.0 mi WSW 25.3 mph 36.8 mph N/A   Scattered Clouds
3:34 PM 64.4 °F 39.2 °F 40% 29.66 in 10.0 mi WSW 28.8 mph 41.4 mph N/A   Scattered Clouds
3:54 PM 64.4 °F 42.8 °F 45% 29.67 in 10.0 mi West 19.6 mph 35.7 mph N/A   Scattered Clouds
4:14 PM 64.4 °F 39.2 °F 40% 29.67 in 10.0 mi WSW 29.9 mph 42.6 mph N/A   Scattered Clouds
4:34 PM 62.6 °F 42.8 °F 48% 29.69 in 10.0 mi West 18.4 mph 33.4 mph N/A   Scattered Clouds
4:54 PM 62.6 °F 42.8 °F 48% 29.70 in 10.0 mi WSW 21.9 mph 34.5 mph N/A   Scattered Clouds
5:13 PM 62.6 °F 42.8 °F 48% 29.71 in 10.0 mi West 18.4 mph 29.9 mph N/A   Scattered Clouds
5:34 PM 62.6 °F 42.8 °F 48% 29.71 in 10.0 mi WSW 21.9 mph 29.9 mph N/A   Scattered Clouds
5:54 PM 62.6 °F 42.8 °F 48% 29.72 in 10.0 mi West 16.1 mph 26.5 mph N/A   Scattered Clouds
6:13 PM 62.6 °F 42.8 °F 48% 29.73 in 10.0 mi West 17.3 mph 23.0 mph N/A   Scattered Clouds
6:34 PM 60.8 °F 41.0 °F 48% 29.74 in 10.0 mi West 11.5 mph 21.9 mph N/A   Clear
6:53 PM 59.0 °F 42.8 °F 55% 29.75 in 10.0 mi West 6.9 mph - N/A   Scattered Clouds
7:14 PM 59.0 °F 41.0 °F 51% 29.75 in 10.0 mi West 10.4 mph 17.3 mph N/A   Scattered Clouds
7:34 PM 57.2 °F 42.8 °F 59% 29.76 in 10.0 mi West 5.8 mph - N/A   Clear
7:54 PM 55.4 °F 41.0 °F 58% 29.77 in 10.0 mi WSW 5.8 mph - N/A   Clear
8:14 PM 55.4 °F 42.8 °F 63% 29.78 in 10.0 mi WSW 8.1 mph - N/A   Clear
8:34 PM 55.4 °F 41.0 °F 58% 29.78 in 10.0 mi WSW 9.2 mph - N/A   Clear
8:53 PM 55.4 °F 41.0 °F 58% 29.79 in 10.0 mi WSW 11.5 mph - N/A   Clear
9:14 PM 53.6 °F 41.0 °F 62% 29.79 in 10.0 mi WSW 6.9 mph - N/A   Clear
9:34 PM 53.6 °F 41.0 °F 62% 29.80 in 10.0 mi WSW 8.1 mph - N/A   Clear
9:54 PM 53.6 °F 39.2 °F 58% 29.80 in 10.0 mi WSW 10.4 mph - N/A   Clear
10:14 PM 53.6 °F 39.2 °F 58% 29.80 in 10.0 mi WSW 9.2 mph - N/A   Clear
10:34 PM 53.6 °F 39.2 °F 58% 29.82 in 10.0 mi WSW 8.1 mph - N/A   Clear
10:54 PM 51.8 °F 39.2 °F 62% 29.82 in 10.0 mi SW 6.9 mph - N/A   Clear
11:14 PM 50.0 °F 39.2 °F 66% 29.83 in 10.0 mi SW 8.1 mph - N/A   Clear
11:34 PM 50.0 °F 39.2 °F 66% 29.84 in 10.0 mi SW 8.1 mph - N/A   Clear
11:54 PM 50.0 °F 39.2 °F 66% 29.84 in 10.0 mi SW 8.1 mph - N/A   Clear